Precipitable_Water
1.07 1.07 1.04 1.01 0.97 0.95 0.95 0.94 0.99 1.01 1.05 1.09 1.06 1.06 1.07 1.12 1.21 1.23 1.26 1.32 1.36 1.40 1.42 1.41 1.41 1.42 1.45 1.51 1.57 1.58 1.58 1.57 1.54 1.55 1.53 1.49 1.42 1.35 1.28 1.26 1.22 1.19
1.07 1.07 1.06 1.03 1.00 1.00 1.02 1.02 1.01 1.02 1.03 1.08 1.10 1.12 1.16 1.19 1.21 1.22 1.23 1.25 1.32 1.36 1.41 1.44 1.43 1.42 1.42 1.44 1.51 1.51 1.52 1.53 1.49 1.55 1.49 1.47 1.45 1.40 1.33 1.30 1.23 1.23
1.07 1.06 1.04 1.00 0.96 0.96 0.99 1.05 1.05 1.05 1.05 1.07 1.13 1.16 1.17 1.22 1.22 1.23 1.22 1.25 1.27 1.31 1.36 1.40 1.42 1.42 1.42 1.42 1.45 1.48 1.47 1.47 1.46 1.52 1.49 1.44 1.47 1.42 1.37 1.36 1.28 1.21
1.06 1.05 1.03 1.00 0.99 0.97 1.00 1.04 1.08 1.10 1.11 1.11 1.10 1.14 1.17 1.21 1.24 1.23 1.23 1.24 1.23 1.25 1.28 1.31 1.32 1.35 1.37 1.39 1.41 1.41 1.44 1.47 1.49 1.51 1.46 1.46 1.46 1.44 1.41 1.38 1.34 1.28
1.02 1.03 1.04 1.03 1.03 1.02 1.02 1.00 1.01 1.06 1.07 1.07 1.11 1.15 1.18 1.20 1.20 1.21 1.22 1.23 1.23 1.22 1.24 1.24 1.26 1.27 1.29 1.31 1.35 1.34 1.38 1.41 1.49 1.51 1.46 1.42 1.45 1.44 1.43 1.39 1.35 1.28
1.06 1.04 1.03 1.01 1.00 1.00 1.00 0.97 0.97 0.98 1.02 1.07 1.07 1.11 1.15 1.19 1.20 1.20 1.22 1.21 1.23 1.24 1.24 1.25 1.24 1.26 1.27 1.25 1.25 1.26 1.30 1.33 1.39 1.44 1.43 1.41 1.42 1.46 1.45 1.40 1.34 1.30
1.05 1.05 1.04 1.04 1.03 1.02 0.99 0.98 0.98 0.98 0.98 0.99 1.07 1.09 1.13 1.17 1.21 1.23 1.25 1.24 1.23 1.23 1.23 1.24 1.24 1.25 1.28 1.27 1.24 1.22 1.24 1.27 1.32 1.36 1.36 1.40 1.42 1.43 1.46 1.43 1.36 1.30
1.06 1.06 1.04 1.04 1.02 1.01 0.98 0.98 0.98 0.98 0.98 1.01 1.03 1.10 1.16 1.16 1.20 1.26 1.29 1.29 1.26 1.23 1.24 1.25 1.26 1.26 1.28 1.28 1.23 1.21 1.21 1.25 1.24 1.26 1.27 1.33 1.40 1.38 1.41 1.42 1.40 1.33
1.10 1.08 1.07 1.06 1.04 1.04 1.01 1.00 1.01 1.02 1.06 1.05 1.04 1.09 1.18 1.19 1.19 1.22 1.27 1.29 1.27 1.26 1.25 1.24 1.24 1.25 1.27 1.25 1.23 1.21 1.18 1.19 1.21 1.20 1.18 1.19 1.25 1.31 1.36 1.40 1.38 1.33
1.11 1.10 1.08 1.06 1.03 1.04 1.03 1.05 1.07 1.08 1.11 1.10 1.08 1.09 1.12 1.20 1.23 1.22 1.25 1.27 1.24 1.24 1.24 1.22 1.22 1.23 1.24 1.24 1.22 1.22 1.19 1.17 1.18 1.18 1.16 1.13 1.13 1.19 1.27 1.32 1.31 1.30
1.11 1.12 1.10 1.07 1.05 1.06 1.06 1.08 1.10 1.11 1.14 1.13 1.12 1.11 1.13 1.18 1.24 1.27 1.25 1.24 1.22 1.19 1.18 1.19 1.19 1.20 1.19 1.21 1.22 1.24 1.22 1.19 1.17 1.16 1.15 1.13 1.11 1.12 1.16 1.21 1.24 1.25
1.09 1.12 1.12 1.09 1.07 1.07 1.07 1.09 1.11 1.13 1.15 1.17 1.16 1.12 1.14 1.18 1.20 1.24 1.22 1.18 1.18 1.18 1.17 1.16 1.18 1.19 1.19 1.18 1.20 1.22 1.23 1.22 1.19 1.17 1.15 1.13 1.11 1.11 1.11 1.14 1.16 1.19
1.09 1.09 1.10 1.09 1.10 1.09 1.10 1.10 1.10 1.12 1.15 1.16 1.18 1.17 1.16 1.17 1.19 1.20 1.22 1.18 1.15 1.16 1.17 1.16 1.14 1.16 1.17 1.18 1.19 1.22 1.22 1.20 1.18 1.17 1.16 1.15 1.14 1.12 1.12 1.14 1.15 1.16
1.12 1.07 1.07 1.08 1.10 1.10 1.09 1.08 1.09 1.11 1.13 1.17 1.19 1.18 1.19 1.19 1.17 1.17 1.19 1.19 1.15 1.13 1.14 1.17 1.18 1.19 1.20 1.22 1.22 1.22 1.23 1.22 1.21 1.18 1.17 1.17 1.17 1.18 1.17 1.15 1.15 1.15
1.28 1.18 1.12 1.09 1.08 1.08 1.07 1.07 1.09 1.11 1.13 1.16 1.18 1.19 1.21 1.21 1.20 1.21 1.19 1.18 1.18 1.16 1.17 1.22 1.25 1.26 1.27 1.27 1.26 1.27 1.29 1.28 1.27 1.25 1.22 1.20 1.20 1.20 1.21 1.19 1.19 1.19
1.44 1.32 1.21 1.14 1.11 1.08 1.07 1.07 1.09 1.12 1.14 1.16 1.18 1.19 1.20 1.22 1.22 1.22 1.20 1.17 1.17 1.20 1.22 1.24 1.25 1.29 1.30 1.28 1.28 1.26 1.26 1.29 1.32 1.32 1.30 1.27 1.24 1.22 1.24 1.26 1.25 1.23
1.51 1.44 1.35 1.23 1.17 1.13 1.11 1.09 1.08 1.12 1.15 1.17 1.19 1.21 1.21 1.24 1.24 1.21 1.20 1.21 1.21 1.22 1.22 1.23 1.25 1.27 1.27 1.29 1.29 1.30 1.30 1.30 1.29 1.31 1.34 1.33 1.31 1.27 1.25 1.26 1.28 1.30
1.58 1.54 1.47 1.37 1.29 1.23 1.19 1.16 1.14 1.13 1.15 1.18 1.20 1.23 1.25 1.28 1.27 1.23 1.21 1.24 1.24 1.24 1.24 1.25 1.26 1.27 1.29 1.31 1.33 1.34 1.36 1.36 1.37 1.37 1.38 1.38 1.37 1.35 1.33 1.33 1.34 1.34
1.61 1.57 1.53 1.50 1.43 1.36 1.32 1.29 1.25 1.20 1.19 1.20 1.22 1.27 1.32 1.30 1.28 1.27 1.24 1.25 1.26 1.23 1.22 1.26 1.30 1.34 1.36 1.39 1.42 1.46 1.49 1.51 1.50 1.49 1.47 1.45 1.46 1.46 1.46 1.44 1.42 1.41
1.60 1.57 1.53 1.53 1.55 1.53 1.48 1.43 1.39 1.34 1.28 1.27 1.29 1.35 1.36 1.34 1.31 1.27 1.25 1.24 1.25 1.26 1.27 1.29 1.33 1.39 1.42 1.45 1.49 1.53 1.57 1.60 1.60 1.60 1.58 1.57 1.57 1.58 1.58 1.57 1.56 1.51
1.62 1.59 1.54 1.54 1.58 1.59 1.59 1.56 1.54 1.51 1.46 1.40 1.37 1.36 1.34 1.32 1.31 1.29 1.27 1.26 1.27 1.30 1.32 1.33 1.36 1.42 1.46 1.49 1.52 1.56 1.60 1.63 1.64 1.65 1.64 1.63 1.64 1.66 1.67 1.67 1.67 1.66
1.60 1.59 1.59 1.60 1.60 1.63 1.62 1.60 1.61 1.59 1.54 1.53 1.48 1.42 1.39 1.38 1.38 1.38 1.35 1.33 1.34 1.35 1.34 1.33 1.39 1.47 1.50 1.53 1.56 1.60 1.64 1.66 1.67 1.67 1.65 1.64 1.64 1.66 1.69 1.73 1.75 1.73
1.60 1.59 1.59 1.62 1.64 1.62 1.59 1.60 1.60 1.60 1.60 1.60 1.51 1.45 1.41 1.38 1.36 1.38 1.42 1.42 1.41 1.41 1.37 1.34 1.39 1.50 1.55 1.59 1.63 1.67 1.70 1.70 1.70 1.70 1.69 1.67 1.67 1.70 1.74 1.76 1.78 1.78
1.60 1.59 1.57 1.58 1.60 1.58 1.58 1.59 1.61 1.62 1.60 1.62 1.52 1.47 1.44 1.44 1.46 1.45 1.46 1.46 1.44 1.43 1.43 1.40 1.42 1.52 1.57 1.61 1.66 1.71 1.73 1.73 1.74 1.73 1.70 1.70 1.72 1.80 1.82 1.80 1.79 1.79
1.56 1.58 1.56 1.56 1.54 1.56 1.59 1.58 1.58 1.57 1.61 1.64 1.61 1.60 1.56 1.57 1.56 1.51 1.50 1.50 1.50 1.50 1.52 1.49 1.50 1.57 1.61 1.62 1.66 1.72 1.77 1.81 1.82 1.78 1.73 1.73 1.80 1.81 1.84 1.83 1.82 1.85
1.51 1.52 1.54 1.55 1.57 1.61 1.65 1.66 1.68 1.66 1.62 1.61 1.62 1.63 1.60 1.60 1.59 1.56 1.51 1.51 1.54 1.54 1.54 1.56 1.55 1.60 1.66 1.66 1.69 1.73 1.78 1.82 1.84 1.77 1.70 1.76 1.84 1.82 1.79 1.81 1.84 1.85
Wind_Speed
23 22 22 21 21 20 19 19 18 17 16 16 15 14 14 13 13 12 12 12 11 10 10 9 9 8 8 8 7 7 7 6 6 6 6 6 5 5 5 5 4 4
23 23 22 21 21 20 19 19 19 18 17 16 16 15 14 14 14 13 12 12 12 11 11 10 9 9 9 9 8 8 7 7 7 7 7 7 7 6 6 6 6 5
24 23 23 22 21 20 19 19 19 19 18 17 16 16 15 14 14 14 13 13 12 12 12 11 11 10 9 9 9 9 8 8 8 8 8 8 8 8 7 7 7 7
25 24 23 22 21 20 20 19 19 18 18 17 17 16 16 15 15 14 14 13 13 13 13 12 11 11 10 10 10 10 10 9 9 9 8 9 9 9 9 8 8 8
25 24 23 23 22 21 20 20 19 19 18 18 17 17 16 16 15 14 14 14 13 13 13 12 12 11 11 11 11 10 11 10 10 10 10 10 10 10 10 10 10 10
26 25 24 23 22 22 21 21 20 20 19 19 18 18 17 16 16 15 15 14 13 13 13 13 13 12 11 11 11 11 11 11 11 11 11 11 11 11 11 11 11 11
26 26 25 24 23 22 22 21 21 20 20 19 19 18 18 17 16 16 15 15 14 14 14 14 14 13 12 12 12 12 11 11 12 12 12 12 12 12 12 12 13 13
27 26 25 24 24 23 22 22 21 21 20 20 19 18 18 18 17 16 16 16 15 15 14 14 14 14 14 13 13 13 12 12 12 12 13 13 13 13 13 13 14 14
27 26 25 25 24 24 23 22 21 21 20 20 19 19 18 18 18 17 16 16 16 15 15 15 14 14 14 14 14 13 13 13 13 12 13 13 14 14 14 14 15 15
26 26 26 26 25 24 23 22 21 21 21 20 20 19 19 18 18 18 17 16 16 16 15 15 15 15 14 14 14 14 14 14 13 13 13 14 14 15 15 15 16 16
27 26 26 26 25 24 24 23 22 21 21 21 20 20 19 19 18 18 18 17 16 16 16 16 15 15 15 15 14 14 14 14 14 14 14 14 15 15 15 16 16 17
26 26 26 25 25 24 24 23 22 22 21 21 21 21 20 20 19 19 18 18 17 17 16 16 16 16 15 15 15 15 15 15 15 15 15 15 15 15 16 16 17 17
26 26 25 25 25 24 24 23 23 23 22 22 22 21 21 20 20 19 19 19 18 18 17 17 16 16 16 15 15 15 15 15 15 15 15 15 16 16 16 16 17 17
25 25 25 25 25 24 24 24 23 23 23 22 22 22 22 21 21 20 20 19 19 18 18 17 16 16 16 16 16 15 15 15 15 15 15 16 16 16 16 17 17 17
25 24 24 25 25 25 25 24 24 24 23 23 23 22 22 22 21 21 21 20 20 19 18 17 17 17 17 17 17 16 16 16 16 16 16 16 16 16 16 17 17 17
25 24 24 25 25 25 25 25 24 24 24 23 23 22 22 22 21 21 21 21 20 19 19 18 18 18 18 18 18 18 17 17 17 17 17 16 16 16 16 17 17 17
25 25 25 25 25 25 25 25 25 24 24 23 23 23 22 22 21 21 21 21 20 20 19 19 19 19 19 20 20 19 18 17 17 17 17 17 17 17 17 17 17 18
25 25 25 25 25 25 24 25 25 25 24 24 23 23 23 22 22 22 22 21 21 21 20 20 20 20 20 20 20 20 19 18 17 17 17 17 18 18 18 18 18 19
25 25 26 26 25 25 25 25 25 25 25 24 24 23 23 23 22 22 22 22 22 22 21 21 21 21 21 21 21 20 20 19 18 18 18 18 19 19 19 19 19 20
23 24 26 26 26 26 26 26 26 26 25 25 24 24 23 23 23 23 23 23 23 23 23 22 22 22 22 21 21 21 21 20 20 20 20 20 20 20 20 21 21 21
22 22 24 25 26 26 26 26 26 26 26 25 25 25 24 24 24 24 24 23 23 23 24 23 23 23 22 22 22 22 22 21 21 21 21 21 22 22 22 22 22 23
22 21 22 23 25 26 27 27 27 27 26 26 26 25 25 25 25 24 24 24 24 24 24 23 23 23 23 22 22 22 22 22 23 23 23 23 24 24 24 24 24 25
22 22 21 21 23 24 26 27 27 27 27 26 26 26 26 25 25 25 25 24 24 24 24 23 23 23 23 23 22 22 23 23 23 24 24 25 26 26 26 26 26 27
22 22 22 22 22 23 23 24 26 26 26 26 26 26 26 25 25 25 24 24 24 24 24 24 23 23 23 23 23 23 23 24 24 25 26 26 27 27 27 28 28 29
23 22 22 22 23 23 23 23 23 24 25 25 26 26 25 25 24 24 24 24 24 24 24 24 24 24 23 24 24 24 24 25 25 26 26 27 27 28 28 29 30 30
23 23 22 22 23 23 22 22 22 23 23 24 24 25 25 25 24 24 24 24 24 24 24 24 24 24 24 24 25 25 26 26 26 27 27 27 28 29 29 30 31 31
Wind_Direction
207 206 207 208 210 211 211 211 213 214 215 215 216 217 218 219 220 220 220 222 225 226 229 230 231 232 234 234 237 239 240 240 241 241 238 237 238 238 237 235 234 240
207 207 207 208 210 212 212 212 214 216 218 217 217 218 219 220 222 223 224 225 227 229 230 232 234 236 237 237 238 242 243 242 243 243 241 241 242 240 240 241 240 241
207 207 208 209 211 212 213 214 215 217 219 220 219 219 221 222 223 225 228 229 231 232 233 235 237 239 241 241 241 244 245 244 244 246 244 244 245 244 243 244 246 244
208 208 209 211 213 213 214 215 216 218 220 221 222 222 223 224 224 226 229 231 233 235 237 238 239 241 242 243 244 246 247 247 246 247 248 248 248 247 246 246 249 250
209 210 211 213 214 215 216 217 218 219 221 223 224 224 225 225 226 227 229 231 233 235 238 240 241 242 243 244 245 247 247 247 247 246 248 249 249 249 249 249 250 252
210 212 213 214 215 216 217 218 219 221 222 224 225 226 227 227 227 228 230 232 233 234 237 239 241 243 244 244 245 246 248 247 247 246 247 249 250 250 250 250 250 252
212 213 214 216 217 218 219 220 221 222 224 226 226 227 227 228 229 229 230 232 234 235 236 238 240 242 244 245 244 245 247 249 248 247 247 249 250 250 251 251 251 252
214 215 216 217 218 219 220 220 222 223 225 226 227 228 228 229 230 230 230 230 232 235 237 238 240 241 243 245 244 244 246 249 250 249 248 249 250 251 252 252 252 253
215 216 217 218 218 219 220 220 222 223 225 226 227 228 229 229 230 230 231 231 231 233 236 238 241 242 243 244 245 246 246 249 251 251 251 251 251 252 252 251 252 253
215 216 217 217 218 219 220 220 222 224 225 226 226 227 228 229 230 230 231 232 233 234 235 237 240 242 243 244 246 247 248 249 251 253 254 254 254 254 253 252 252 252
214 215 216 217 218 219 220 221 222 224 225 225 226 227 228 229 230 230 231 233 235 236 236 237 238 240 242 244 246 248 249 250 251 253 254 255 256 256 255 255 254 253
214 215 216 217 219 220 220 221 222 224 225 225 226 227 229 230 231 231 232 233 235 237 237 237 239 240 241 244 246 248 250 252 253 254 255 256 257 257 257 256 256 255
214 216 217 218 219 220 221 222 223 224 225 225 227 228 230 231 232 233 234 234 235 236 237 238 239 240 242 244 246 248 250 252 253 255 256 257 258 258 258 258 257 257
215 217 218 220 221 222 223 224 224 224 225 226 227 228 230 232 233 234 235 235 235 235 236 237 239 240 242 244 246 248 250 252 254 256 258 259 260 260 259 259 258 258
217 218 219 221 222 223 224 225 225 225 226 227 228 229 231 233 234 234 235 235 234 235 236 238 240 242 244 245 248 250 252 254 256 257 258 260 261 261 261 260 260 260
218 219 220 221 222 224 226 226 227 227 227 227 229 230 231 233 234 234 234 234 233 234 237 239 242 244 246 247 248 251 253 255 256 257 258 259 260 261 261 262 261 262
220 221 222 223 224 225 226 227 228 228 228 228 229 231 232 233 234 234 234 233 234 236 238 240 243 246 247 248 249 251 253 254 255 257 258 258 258 259 261 262 263 263
221 223 224 225 226 227 228 228 228 228 228 228 229 230 231 232 234 234 234 234 235 237 239 242 245 247 248 249 251 251 252 253 254 256 258 259 259 260 262 264 265 265
222 224 225 226 227 228 229 229 228 227 228 228 229 230 231 233 234 235 236 236 236 238 240 243 246 248 249 250 251 251 251 252 254 256 258 259 260 262 264 265 266 267
222 224 226 227 228 228 229 229 228 228 228 229 230 230 231 233 235 236 237 237 238 240 242 245 247 248 249 249 250 251 251 252 255 257 259 260 262 264 266 266 267 268
222 224 226 228 228 228 228 228 229 229 229 230 231 231 233 235 236 237 238 239 240 241 243 245 247 248 248 249 250 250 251 253 256 259 260 262 263 265 266 267 268 269
222 223 226 227 227 228 228 228 228 229 230 231 232 233 235 236 237 239 239 240 240 240 241 244 246 246 246 248 249 250 252 255 257 259 261 264 265 267 267 269 269 269
224 224 225 226 226 227 228 229 229 230 231 232 233 234 235 236 237 238 239 239 239 239 240 243 245 246 246 248 249 250 253 256 258 260 263 265 267 268 269 270 270 270
227 226 227 227 226 227 228 229 230 231 232 233 234 234 235 236 237 237 238 238 239 239 241 243 246 247 247 249 251 252 254 257 259 261 264 266 268 270 271 272 272 271
229 228 228 227 226 226 228 229 230 231 232 232 233 233 234 235 236 237 237 238 239 241 242 244 247 249 249 251 253 254 256 259 261 263 265 267 268 270 272 273 273 273
229 229 228 227 226 226 227 228 229 230 230 231 232 233 234 235 236 237 238 240 241 243 244 247 249 252 252 253 255 257 258 261 263 264 266 268 270 271 273 274 275 275